Wind_Speed
26 24 22 20 23 21 18 17 16 15 14 14 14 15 15 12 12 13 12 12 12 11 9 10 10 9 7 7 6 6 6 5 7 6 4 4 3 4 6 7 6 7 10
25 24 25 23 21 20 22 20 17 16 15 12 13 15 15 11 12 15 13 12 12 12 11 11 11 9 10 10 8 7 7 7 8 8 6 5 5 4 5 6 7 7 12
24 24 24 23 22 21 20 21 19 17 17 14 13 13 15 14 13 14 14 13 14 14 13 12 12 11 11 10 10 9 9 8 7 6 6 4 3 1 1 4 7 8 8
20 22 23 24 25 24 23 23 21 20 18 16 13 11 11 11 13 14 14 16 15 14 14 15 14 16 14 13 12 10 11 9 9 9 8 6 3 2 1 4 6 7 7
20 22 26 21 22 23 22 22 23 22 20 16 14 12 12 10 10 13 15 16 17 13 10 11 11 12 12 12 12 11 10 10 10 6 6 6 4 2 1 2 5 8 8
25 21 17 20 23 21 23 22 23 23 22 18 16 15 13 9 11 12 13 12 11 11 12 12 14 14 11 11 10 10 9 7 7 6 6 5 4 3 3 3 4 8 4
19 17 17 23 20 27 27 27 27 23 23 21 17 14 14 14 13 11 11 10 8 8 11 14 16 10 10 9 9 9 10 11 11 8 6 4 4 4 4 3 2 3 5
8 9 7 6 11 15 15 21 21 20 25 23 16 16 13 13 11 11 10 9 8 8 8 7 10 10 8 6 5 4 4 5 7 4 5 4 4 3 4 2 4 8 6
7 5 5 7 12 15 19 17 25 22 23 21 17 15 12 12 16 15 10 6 2 5 6 5 6 5 8 9 7 6 4 2 2 5 6 5 3 5 6 4 4 7 4
7 7 5 8 15 18 13 13 21 20 22 15 8 7 10 13 20 21 19 16 10 5 4 1 2 1 2 2 6 7 7 5 3 3 4 5 5 5 4 6 3 6 3
4 1 7 4 9 13 12 16 17 16 17 13 10 4 6 10 12 16 13 12 9 8 10 8 6 5 4 5 6 7 8 6 6 4 4 5 6 6 6 5 3 2 0
4 1 4 3 4 8 15 11 9 9 11 12 11 8 6 4 4 6 6 5 7 9 11 8 7 6 4 5 5 3 4 7 8 6 4 4 4 5 7 7 6 6 6
12 11 9 7 7 7 9 8 7 9 10 12 14 14 9 7 4 4 5 3 5 5 6 6 6 6 6 6 8 9 7 6 7 7 6 5 4 5 5 5 5 6 6
15 14 11 12 12 10 10 9 8 5 5 9 11 9 7 7 6 6 8 6 4 6 7 8 7 6 5 5 5 4 3 5 3 4 4 3 4 2 2 1 3 3 4
21 21 21 18 16 17 17 16 13 9 8 9 10 9 9 10 8 9 8 7 5 4 5 6 6 5 5 4 5 4 3 3 2 3 3 3 3 3 2 2 3 2 3
19 19 19 19 18 18 20 21 20 18 13 11 11 9 11 10 8 6 6 7 4 1 3 2 1 2 3 2 3 4 3 3 2 3 3 3 1 2 2 4 5 3 5
16 17 15 13 15 13 11 9 13 14 16 15 12 11 9 9 7 4 2 1 3 4 1 2 4 6 4 3 3 3 4 4 4 2 1 4 4 4 4 4 3 4 4
13 12 12 10 9 8 8 10 10 11 8 8 7 6 4 3 2 3 3 2 2 1 3 6 8 9 8 7 6 5 5 4 4 3 1 2 3 4 4 4 4 4 4
11 12 11 10 8 8 7 6 7 8 7 6 7 7 7 6 4 3 3 3 3 3 4 6 10 13 14 12 10 9 8 7 5 4 3 3 3 3 4 4 4 5 6
8 8 7 6 6 5 5 5 6 6 5 4 4 4 3 3 2 2 4 4 6 6 6 6 8 9 12 11 9 7 7 8 7 7 7 6 6 5 3 3 4 5 3
3 4 5 4 5 5 4 4 4 3 3 3 3 2 2 2 2 2 2 4 5 5 3 3 6 7 7 7 7 7 7 7 7 7 6 8 7 6 6 6 4 3 2
3 2 2 2 2 2 2 2 2 3 3 3 3 2 2 1 3 2 2 4 7 6 3 3 5 6 6 6 7 7 8 8 7 7 7 5 5 5 5 5 4 4 4
6 5 5 4 3 3 3 2 1 0 1 2 2 3 3 3 4 5 5 5 7 6 4 4 5 5 5 6 8 8 8 8 9 8 7 7 7 7 6 6 5 5 4
8 8 7 6 6 6 6 5 4 4 4 4 4 4 5 5 6 6 7 8 8 7 7 9 10 9 7 6 6 7 8 7 7 8 8 8 7 7 6 5 5 5 4
9 8 8 8 8 7 6 7 7 6 5 6 7 9 9 8 8 8 8 9 9 9 9 11 13 12 11 10 8 9 10 11 8 9 7 7 7 7 6 6 6 6 6
8 8 8 8 8 8 8 7 6 6 5 6 7 7 8 10 12 12 13 12 12 12 12 13 15 16 14 13 11 12 13 11 12 12 9 9 9 8 8 7 7 7 6
Wind_Direction
212 215 215 217 225 232 236 242 252 259 253 251 252 253 248 248 241 248 249 246 244 244 240 241 243 246 247 246 244 255 261 259 279 292 271 264 287 338 1 20 49 63 40
214 214 220 224 226 228 235 243 250 253 242 250 253 251 253 250 243 245 244 249 245 249 247 250 243 242 241 250 246 239 250 249 264 278 287 279 263 329 21 49 76 77 70
213 216 221 225 226 228 231 235 244 248 240 247 253 252 244 254 256 254 255 244 243 249 249 251 250 238 237 238 242 244 253 241 245 250 271 266 263 343 58 110 97 100 88
221 220 222 226 229 229 230 234 235 235 231 236 244 246 238 253 248 248 257 257 253 251 251 252 242 250 247 244 240 241 251 250 246 258 267 261 251 241 162 170 120 105 107
226 227 234 236 236 239 235 233 233 231 234 233 234 239 239 247 241 246 251 256 258 252 252 245 241 247 250 246 236 242 242 245 257 253 265 262 243 225 178 140 153 118 93
240 235 237 244 245 239 238 236 231 234 235 237 238 233 231 231 249 252 256 252 249 256 251 252 254 251 258 259 253 243 235 241 245 248 254 252 247 214 173 162 167 186 156
228 229 236 240 248 255 253 256 244 236 240 241 234 223 223 232 238 250 256 250 257 256 247 248 250 247 246 247 254 257 253 242 236 240 268 259 248 219 189 183 176 142 123
192 202 207 227 249 253 250 263 259 265 246 238 222 216 230 238 244 266 251 255 257 265 260 246 239 236 233 229 228 220 226 239 232 231 247 255 259 232 208 213 172 154 124
202 229 273 269 264 266 265 257 256 260 244 227 216 215 245 258 252 234 238 230 256 274 264 237 224 246 256 259 232 218 215 234 301 249 250 251 225 220 210 200 208 210 187
213 236 263 284 274 257 248 238 234 226 226 206 200 226 257 247 241 235 220 234 222 252 258 144 169 241 276 248 243 225 212 205 184 120 91 105 112 121 168 185 189 250 237
147 314 284 308 278 268 238 205 198 197 189 183 179 180 247 240 245 257 220 210 215 225 246 249 253 258 286 268 254 238 226 212 177 141 110 82 82 95 94 92 109 86 123
49 188 236 201 246 216 188 157 170 191 170 151 137 130 152 142 229 202 165 246 226 233 246 244 243 246 248 239 215 202 201 171 162 151 123 98 76 77 78 83 73 72 89
110 100 97 102 108 101 105 111 130 144 152 144 135 131 120 93 79 93 151 172 201 198 204 200 180 186 183 136 123 129 143 172 171 168 168 163 136 142 116 107 97 82 74
85 84 85 87 91 94 107 118 124 117 129 130 120 116 100 86 71 88 98 104 128 153 155 157 170 195 201 181 168 170 204 229 219 200 159 155 161 162 120 118 119 75 54
79 82 83 88 91 94 90 85 86 86 102 109 114 129 121 106 76 65 77 97 119 139 144 152 166 163 154 126 109 97 89 94 121 131 139 150 146 146 122 106 137 183 191
83 79 83 86 87 90 96 94 86 79 82 93 111 126 122 115 123 99 93 77 59 78 102 37 317 207 173 136 115 99 85 77 91 118 119 121 140 134 130 100 100 96 110
93 91 86 84 83 84 80 74 85 80 86 99 110 111 100 104 126 137 113 76 304 297 248 169 243 261 239 193 156 133 130 139 141 125 173 160 166 165 136 122 131 142 130
83 95 87 88 88 83 79 84 89 88 87 81 97 105 109 105 41 358 21 21 289 255 259 237 212 202 212 194 164 157 146 163 157 141 269 260 184 180 181 161 161 163 141
86 86 83 82 83 80 77 73 85 89 95 106 102 97 96 91 89 76 47 12 326 293 269 246 212 188 181 182 176 180 173 185 189 173 196 227 242 218 169 167 188 178 152
94 95 95 94 88 74 77 77 78 82 86 97 100 102 98 75 89 57 31 352 337 319 288 260 223 209 189 179 171 181 196 199 197 191 191 198 200 202 228 189 200 209 198
114 109 105 106 116 113 103 96 96 106 113 103 95 110 148 173 159 138 37 3 335 328 296 231 202 191 180 180 198 209 208 210 215 205 209 193 187 208 185 181 190 193 188
201 180 157 135 126 140 128 107 73 63 67 76 73 57 24 279 245 245 296 340 350 330 316 202 180 175 190 209 224 222 224 222 218 216 213 200 199 211 207 179 177 191 194
221 220 217 215 207 193 193 203 194 303 342 341 329 330 311 321 291 268 274 303 325 321 283 215 203 209 225 246 248 239 235 230 223 215 210 206 209 207 201 195 191 203 212
229 230 230 225 216 222 228 231 238 251 265 273 278 282 280 274 276 270 264 271 283 278 248 231 223 226 236 243 244 234 232 226 217 217 209 211 208 206 200 208 217 220 227
223 227 225 229 230 231 236 242 242 247 264 271 274 272 271 271 271 273 268 268 273 261 251 237 234 236 241 242 245 236 233 236 216 213 206 206 205 201 207 211 217 225 229
215 219 222 222 227 236 243 238 248 268 282 289 292 296 296 282 275 273 276 270 267 264 253 245 241 237 235 237 235 232 236 235 226 215 201 200 200 203 208 212 215 225 232
Height
833 837 841 843 845 848 850 852 853 854 854 854 856 857 858 859 860 860 861 863 863 863 863 863 863 863 864 864 865 865 864 864 863 861 861 860 860 860 858 856 856 854 850
828 832 835 839 842 844 845 848 850 851 851 852 853 854 854 855 856 856 858 860 860 861 861 861 860 860 860 861 862 862 862 861 861 860 859 859 859 858 857 856 856 855 853
824 827 830 834 837 839 841 843 846 847 848 850 850 850 851 852 853 853 854 856 857 858 858 858 858 858 858 858 859 859 859 858 858 858 857 856 857 857 857 855 855 855 854
821 824 827 829 832 834 836 838 841 843 844 845 846 847 848 849 850 850 851 851 851 852 854 855 855 855 855 855 855 856 857 857 857 857 856 855 855 855 855 855 855 854 855
817 820 822 827 829 831 833 834 836 838 841 842 843 844 845 846 847 847 847 848 849 848 848 849 850 851 852 852 852 852 853 854 856 856 856 855 854 854 854 854 854 855 855
812 814 819 823 824 827 828 830 831 833 835 838 839 840 841 843 843 845 845 844 845 845 846 848 848 847 848 849 849 848 850 852 853 854 853 853 853 853 853 853 852 854 853
810 811 813 818 819 820 823 826 827 828 832 834 834 837 837 838 840 842 842 842 842 842 843 845 846 846 845 846 846 847 848 848 849 849 850 851 851 852 852 852 852 852 853
805 810 812 814 814 816 817 819 822 826 828 828 830 831 833 835 837 839 840 839 839 841 840 841 843 844 843 844 845 845 846 846 846 847 847 849 850 850 851 852 852 851 853
805 806 808 810 811 811 811 812 814 815 822 823 825 828 830 831 833 837 837 837 835 838 838 837 840 842 842 842 843 845 845 844 845 844 844 844 844 846 847 851 853 851 851
802 806 804 807 807 808 806 804 810 813 814 818 821 823 825 827 829 828 832 834 833 835 838 837 838 840 841 840 843 843 843 844 846 845 846 845 845 846 847 847 848 850 850
805 804 808 806 807 808 805 805 808 809 806 814 817 818 821 825 827 828 827 829 831 834 837 837 837 837 839 840 842 842 842 843 844 846 848 849 848 847 847 848 847 850 850
802 807 808 808 808 807 806 805 808 810 811 812 814 817 822 824 827 826 824 828 829 831 835 837 836 839 840 841 840 840 842 842 844 847 849 850 850 850 849 848 850 850 850
806 807 808 808 808 808 809 810 812 812 816 818 816 818 823 822 827 825 824 826 831 831 834 837 838 841 843 840 840 841 843 845 845 846 848 848 851 851 849 848 850 849 850
807 808 809 809 810 811 813 814 815 818 820 820 819 821 823 826 828 829 827 829 833 835 836 837 840 842 843 842 842 842 844 846 847 848 847 848 848 850 850 852 852 854 857
812 813 812 814 816 816 817 818 820 821 821 822 823 825 827 829 830 833 833 834 835 838 838 840 843 844 843 842 843 844 846 848 849 849 849 852 851 852 852 851 849 851 853
817 818 820 820 821 822 822 821 824 825 822 825 827 827 828 829 832 831 836 835 837 838 839 842 844 845 846 845 843 845 848 850 850 850 850 851 854 852 853 849 849 856 855
823 824 826 826 826 828 828 828 827 829 828 829 831 831 832 833 835 837 834 833 838 839 839 838 842 845 845 845 845 845 847 848 851 851 853 851 852 852 851 852 854 854 856
827 827 828 829 832 832 831 831 831 831 835 834 833 834 835 835 835 836 835 834 836 835 836 837 837 838 843 844 845 845 847 851 849 851 855 855 853 852 853 851 854 855 853
830 830 831 831 833 834 832 834 833 832 833 835 834 835 835 835 836 836 836 836 837 836 836 837 836 836 837 840 841 843 843 848 850 849 851 855 856 855 850 852 855 855 852
831 832 832 835 836 837 835 836 835 834 835 837 838 837 838 837 838 838 838 839 838 837 837 837 837 839 839 840 840 841 844 846 847 847 849 850 852 854 855 852 854 857 855
833 833 833 835 836 836 837 837 837 838 839 838 836 836 839 841 838 838 839 839 838 837 837 836 837 838 839 840 841 842 846 846 847 847 848 848 849 853 852 852 854 855 856
833 834 834 834 834 835 836 837 837 836 836 836 837 837 836 837 838 838 838 838 836 835 835 836 836 837 839 841 843 843 844 845 847 848 849 847 849 853 853 851 852 854 855
832 832 833 833 834 834 835 835 836 836 836 836 836 837 837 837 836 836 837 837 835 835 834 835 838 840 840 840 841 842 843 842 844 846 846 847 849 851 851 851 850 853 853
829 830 831 832 833 834 835 835 835 835 835 836 836 837 837 837 836 836 836 836 836 836 835 836 838 839 838 837 838 839 841 842 842 843 844 846 846 848 848 850 852 852 852
826 827 828 830 831 832 833 834 834 835 835 835 835 835 835 835 834 834 833 833 832 832 833 833 834 834 834 834 836 838 839 840 841 843 843 843 845 846 848 847 850 852 851
824 825 826 827 828 829 830 831 831 831 831 832 832 832 831 831 830 829 829 829 828 828 828 828 829 829 830 832 833 834 835 836 837 839 841 842 844 845 847 847 848 849 848